Nashville, TN

2:53 PM CST on December 06, 2019 (GMT -0600)
Nashville International

Weather History for KBNA - November, 2019

Change the Weather History Date:

Thursday, November 21, 2019

  Actual Average Record
Temperature  
Mean Temperature 54 °F 48 °F  
Max Temperature 64 °F 58 °F 77 °F (1942)
Min Temperature 43 °F 38 °F 12 °F (1887)
Degree Days  
Heating Degree Days 12    
Month to date heating degree days 426  
Since 1 July heating degree days 569  
Cooling Degree Days 0    
Month to date cooling degree days 0  
Year to date cooling degree days 2280  
Growing Degree Days 4 (Base 50)    
Moisture  
Dew Point 38 °F    
Average Humidity 50    
Maximum Humidity 79    
Minimum Humidity 36    
Precipitation  
Precipitation T in 0.16 in 3.42 in (1900)
Month to date precipitation 1.09 2.84  
Year to date precipitation 54.97 41.54  
Sea Level Pressure  
Sea Level Pressure 30.13 in    
Wind  
Wind Speed 6 mph ()    
Max Wind Speed 20 mph    
Max Gust Speed 28 mph    
Visibility 10.0 miles    
Events      
T = Trace of Precipitation, MM = Missing Value Source: Averaged Metar Reports

Daily Weather History Graph

Daily Weather History Graph

Search for Another Location

Airport or City:

Astronomy

Nov. 21, 2019 Rise Set
Actual Time 6:29 AM CST 4:35 PM CST
Civil Twilight 6:01 AM CST 5:03 PM CST
Nautical Twilight 5:30 AM CST 5:34 PM CST
Astronomical Twilight 4:59 AM CST 6:05 PM CST
Moon 12:38 AM CST (11/21) 1:52 PM CST (11/21)
Length of Visible Light 11h 01m
Length of Day
10h 06m
Waning Crescent, 29% of the Moon is Illuminated
Nov 21
Waning Crescent
Nov 26
New
Dec 4
First Quarter
Dec 11
Full
Dec 18
Last Quarter

Hourly Weather History & Observations

Time (CST) Temp. Windchill Dew Point Humidity Pressure Visibility Wind Dir Wind Speed Gust Speed Precip Events Conditions
12:53 AM 46.9 °F - 37.9 °F 71% 30.21 in 10.0 mi Calm Calm - N/A   Clear
1:53 AM 45.0 °F - 37.9 °F 76% 30.19 in 10.0 mi Calm Calm - N/A   Clear
2:53 AM 45.0 °F 43.5 °F 37.0 °F 74% 30.20 in 10.0 mi South 3.5 mph - N/A   Scattered Clouds
3:53 AM 44.1 °F 42.5 °F 37.9 °F 79% 30.18 in 10.0 mi South 3.5 mph - N/A   Mostly Cloudy
6:53 AM 50.0 °F - 37.0 °F 61% 30.19 in 10.0 mi South 5.8 mph - N/A   Mostly Cloudy
7:53 AM 55.0 °F - 37.0 °F 51% 30.19 in 10.0 mi South 9.2 mph - N/A   Overcast
8:53 AM 55.0 °F - 37.9 °F 53% 30.17 in 10.0 mi South 4.6 mph - N/A   Overcast
9:53 AM 59.0 °F - 36.0 °F 42% 30.18 in 10.0 mi South 9.2 mph - N/A   Mostly Cloudy
10:53 AM 60.1 °F - 37.0 °F 42% 30.17 in 10.0 mi SSW 12.7 mph - N/A   Mostly Cloudy
11:53 AM 62.1 °F - 36.0 °F 38% 30.14 in 10.0 mi SW 12.7 mph 21.9 mph N/A   Mostly Cloudy
12:53 PM 62.1 °F - 36.0 °F 38% 30.11 in 10.0 mi SSW 18.4 mph 26.5 mph 0.00 in   Overcast
1:53 PM 63.0 °F - 36.0 °F 37% 30.10 in 10.0 mi SSW 16.1 mph 23.0 mph N/A   Mostly Cloudy
2:53 PM 63.0 °F - 36.0 °F 37% 30.10 in 10.0 mi SW 12.7 mph 21.9 mph N/A   Mostly Cloudy
3:53 PM 62.1 °F - 36.0 °F 38% 30.11 in 10.0 mi SSW 12.7 mph 20.7 mph N/A   Mostly Cloudy
4:53 PM 62.1 °F - 37.0 °F 39% 30.10 in 10.0 mi SSW 9.2 mph - N/A   Mostly Cloudy
5:53 PM 61.0 °F - 37.9 °F 42% 30.10 in 10.0 mi SSW 9.2 mph - N/A   Overcast
6:53 PM 61.0 °F - 37.9 °F 42% 30.09 in 10.0 mi South 8.1 mph - N/A   Overcast
7:53 PM 60.1 °F - 39.0 °F 46% 30.08 in 10.0 mi South 9.2 mph - N/A   Overcast
8:53 PM 60.1 °F - 39.9 °F 47% 30.07 in 10.0 mi South 8.1 mph - N/A   Overcast
9:53 PM 59.0 °F - 42.1 °F 53% 30.06 in 10.0 mi South 6.9 mph - N/A   Overcast
10:53 PM 60.1 °F - 42.1 °F 51% 30.03 in 10.0 mi South 9.2 mph - N/A   Overcast
11:53 PM 60.1 °F - 41.0 °F 49% 30.02 in 10.0 mi SSW 8.1 mph - N/A   Overcast